TJS-3 AKM

Last updated on Oct. 1, 2020, 5:42 a.m. UTC

1 43917U 18110C   20274.72869073  .00000043  00000-0  00000-0 0  9999
2 43917   0.1534 115.8507 0002866  51.9555 163.3993  1.00272729  6446
UTC
Height (km)
Latitude
Longitude
Inclination
Orbital Period
UTC large
Height (km)
Speed (km/s)
/
Latitude / Longitude
Inclination (degrees)
Orbital Period (minutes)
Azimuth
Elevation
Range (km)
Doppler Factor
iOS Compass Heading
iOS Angle

Next 30 passes for location: Hong Kong

Rise time Rise Azimuth (degrees) Set time Set Azimuth (degrees) Duration Max altitude (degrees)

No matching passes for this satellites